OBJECT D, 61872

Orbit data source: Space-Track

You're viewing an Uncataloged Satellite

Recently launched and/or uncataloged satellites may have evolving metadata. Metadata may include but not limited to: Owner, Maufacturer, Bus, Motor, and Mission.

OBJECT D, 61872 is a satellite owned by Hangtian Hongtu (CN) in SSO that was launched on Sat, 09 Nov 2024 UTC via a CHANG ZHENG 2C launch vehicle from the Jiuquan Satellite Launch Center, China (JSC). Unknown objects in Earth's orbit typically refer to objects detected orbiting the Earth but have not yet been identified or cataloged. These objects could be anything from previously untracked satellites, spent rocket stages, debris from satellite collisions, or even natural meteoroids temporarily captured by Earth's gravity.

Loading next visibility...
OBJECT D details
Identifier
61872, 2024-203D
Orbit
SSO
Last TLE update23 hours ago
Origin
Flag of CNHangtian Hongtu (CN / PRC)
ManufacturerYinhe
MissionOperational spacecraft
Bus & MotorPIESAT, Unknown motor
Mass270 kg wet, 270 kg dry
Launch date (UTC)
2024-11-09 (2 months ago)
Launch vehicle
CHANG ZHENG 2C
Launch site
Jiuquan Satellite Launch Center, China (JSC)
Object typeUnknown
Shape & HBRUnknown
Radar Cross SectionLarge (>1 m²)

Expand to show TLE details & history

TLE from 23 hours ago
0 OBJECT D
1 61872U 24203D   24360.64260053  .00032916  00000-0  17377-2 0  9994
2 61872  97.4940  64.7506 0017857  66.4650 293.8456 15.15313497  7038
Epoch: 2024-12-25T15:25Z
Definitive object data (Epoch: 2024-12-25T15:25:20.685Z)
Latitude-0.00005°
Longitude98.78101°
Altitude518.146 km
Speed7.607 km/s
True Right ascension04h 19m 00s
True Declination0° 00' 00"
Sunlit
Object was in full shadow at TLE epoch
Visualization TLE readout
Latitude-72.37074°
Longitude-104.57246°
Altitude558.66 km
Speed7.574 km/s
Apparent Right ascension01h 35m 49s
Apparent Declination-75° 02' 30"
Sunlit
Object is in daylight
Visualization observer readout
Local Sidereal Time14:05:26
Azimuth176.698° S
Elevation-54.71°
Doppler factor1
Orbital elements
Apogee altitude529.315 km
Perigee altitude504.69 km
Semi-major axis6,895.14 km
Eccentricity0.0017857
Inclination97.494°
RAAN64.7506°
Arg. of periapsis66.465°
True anomaly293.65827°
Mean anomaly293.8456°
Eccentric anomaly293.75195°
Mean motion3.79078 °/min
BSTAR0.0017377
Orbital period94.97 mins
Loading maneuver chart data...
Loading historical data...
Loading historical data...
Loading historical data...
Loading historical data...
Loading historical data...
Loading historical data...
Loading historical data...
Other satellites on launch #203 in the year 2024 (2024-11-09 UTC)

OBJECT D Visibility forecast

Observer location: undefined°, undefined

Span
Click to sort rows by Start time (UTC) header in descending order
Start Az.
Max El. time (UTC)
Max El. Az.
Max El.
End time (UTC)
End Az.
6 mins2024-12-26 17:20:33.463Z14.142° NNE2024-12-26 17:23:33.463Z110.883° ESE44.807°2024-12-26 17:26:33.463Z190.222° SSW
5 mins2024-12-27 04:01:33.463Z121.031° SE2024-12-27 04:03:33.463Z65.225° ENE28.353°2024-12-27 04:06:33.463Z8.597° NNE
|